| time (UTC) | temp F | wind direction | speed MPH | gust MPH | rain 1hr in | rain 24hr in | rain mn in | humidity % | barometer mb |
| 20260506073004 | 53 | 134 | 1.0 | 7.0 | 0.00 | 0.00 | 0.00 | 87 | 1016.3 |
| 20260506071505 | 53 | 206 | 0.0 | 2.0 | 0.00 | 0.00 | 0.00 | 87 | 1016.3 |
| 20260506070109 | 54 | 145 | 0.0 | 2.0 | 0.00 | 0.00 | 0.00 | 86 | 1016.2 |
| 20260506061600 | 54 | 144 | 1.0 | 4.0 | 0.00 | 0.00 | 0.00 | 85 | 1015.9 |
| 20260506044555 | 56 | 194 | 0.0 | 3.0 | 0.00 | 0.00 | 0.00 | 82 | 1015.5 |
| 20260506043055 | 56 | 207 | 1.0 | 3.0 | 0.00 | 0.00 | 0.00 | 82 | 1015.3 |
| 20260506041557 | 56 | 171 | 0.0 | 9.0 | 0.00 | 0.00 | 0.00 | 82 | 1015.2 |
| 20260506040101 | 57 | 192 | 2.0 | 5.0 | 0.00 | 0.00 | 0.00 | 81 | 1014.9 |
| 20260506034605 | 57 | 155 | 0.0 | 5.0 | 0.00 | 0.00 | 0.00 | 81 | 1014.8 |
| 20260506033053 | 58 | 178 | 1.0 | 4.0 | 0.00 | 0.00 | 0.00 | 80 | 1014.7 |
| 20260506031600 | 59 | 190 | 1.0 | 4.0 | 0.00 | 0.00 | 0.00 | 78 | 1014.7 |
| 20260506030052 | 61 | 149 | 0.0 | 6.0 | 0.00 | 0.00 | 0.00 | 75 | 1014.5 |
| 20260506024553 | 63 | 184 | 1.0 | 4.0 | 0.00 | 0.00 | 0.00 | 72 | 1014.6 |
| 20260506023050 | 64 | 103 | 0.0 | 3.0 | 0.00 | 0.00 | 0.00 | 72 | 1014.6 |
| 20260506021550 | 64 | 200 | 1.0 | 4.0 | 0.00 | 0.00 | 0.00 | 71 | 1014.7 |
| 20260506020044 | 65 | 184 | 1.0 | 3.0 | 0.00 | 0.00 | 0.00 | 71 | 1014.7 |
| 20260506014544 | 65 | 207 | 2.0 | 4.0 | 0.00 | 0.00 | 0.00 | 70 | 1014.7 |
| 20260506013046 | 65 | 224 | 1.0 | 4.0 | 0.00 | 0.00 | 0.00 | 69 | 1014.8 |
| 20260506011542 | 65 | 201 | 1.0 | 4.0 | 0.00 | 0.00 | 0.00 | 70 | 1014.6 |
| 20260506010044 | 64 | 203 | 2.0 | 5.0 | 0.00 | 0.00 | 0.00 | 70 | 1014.8 |
| 20260506004542 | 64 | 195 | 2.0 | 6.0 | 0.00 | 0.00 | 0.00 | 70 | 1014.8 |
| 20260506003042 | 64 | 193 | 3.0 | 7.0 | 0.00 | 0.00 | 0.00 | 71 | 1014.9 |
| 20260506001541 | 65 | 229 | 2.0 | 6.0 | 0.00 | 0.00 | 0.00 | 70 | 1014.9 |
| 20260506000039 | 64 | 202 | 3.0 | 8.0 | 0.00 | 0.00 | 0.00 | 73 | 1015.1 |
| 20260505234547 | 64 | 212 | 4.0 | 7.0 | 0.00 | 0.00 | 0.00 | 72 | 1015.2 |
| 20260505233041 | 64 | 202 | 3.0 | 6.0 | 0.00 | 0.00 | 0.00 | 73 | 1015.2 |
| 20260505231638 | 64 | 240 | 4.0 | 7.0 | 0.00 | 0.00 | 0.00 | 72 | 1015.4 |
| 20260505230036 | 64 | 202 | 3.0 | 8.0 | 0.00 | 0.00 | 0.00 | 72 | 1015.5 |
| 20260505224537 | 65 | 218 | 3.0 | 8.0 | 0.00 | 0.00 | 0.00 | 71 | 1015.6 |
| 20260505223039 | 64 | 201 | 2.0 | 6.0 | 0.00 | 0.00 | 0.00 | 72 | 1015.7 |
| 20260505221536 | 65 | 218 | 3.0 | 7.0 | 0.00 | 0.00 | 0.00 | 71 | 1015.8 |
| 20260505220039 | 65 | 204 | 2.0 | 6.0 | 0.00 | 0.00 | 0.00 | 74 | 1015.9 |
| 20260505214536 | 64 | 103 | 3.0 | 8.0 | 0.00 | 0.00 | 0.00 | 73 | 1016.0 |
| 20260505213034 | 64 | 188 | 2.0 | 5.0 | 0.00 | 0.00 | 0.00 | 75 | 1016.0 |
| 20260505211531 | 64 | 215 | 3.0 | 9.0 | 0.00 | 0.00 | 0.00 | 73 | 1016.1 |
| 20260505210031 | 64 | 273 | 3.0 | 6.0 | 0.00 | 0.00 | 0.00 | 75 | 1016.2 |
| 20260505204534 | 64 | 208 | 3.0 | 7.0 | 0.00 | 0.00 | 0.00 | 73 | 1016.3 |
| 20260505203032 | 64 | 191 | 2.0 | 7.0 | 0.00 | 0.00 | 0.00 | 74 | 1016.3 |
| 20260505201527 | 64 | 214 | 3.0 | 6.0 | 0.00 | 0.00 | 0.00 | 75 | 1016.4 |
| 20260505200036 | 63 | 200 | 2.0 | 7.0 | 0.00 | 0.00 | 0.00 | 78 | 1016.4 |
| 20260505194522 | 63 | 174 | 2.0 | 7.0 | 0.00 | 0.00 | 0.00 | 77 | 1016.5 |
| 20260505193020 | 62 | 190 | 2.0 | 6.0 | 0.00 | 0.00 | 0.00 | 78 | 1016.5 |
| 20260505191521 | 62 | 198 | 2.0 | 5.0 | 0.00 | 0.00 | 0.00 | 78 | 1016.5 |
| 20260505190029 | 62 | 186 | 3.0 | 8.0 | 0.00 | 0.00 | 0.00 | 77 | 1016.4 |
| 20260505184518 | 61 | 199 | 3.0 | 6.0 | 0.00 | 0.00 | 0.00 | 78 | 1016.4 |
| 20260505183017 | 61 | 288 | 2.0 | 11.0 | 0.00 | 0.00 | 0.00 | 79 | 1016.4 |
| 20260505181516 | 61 | 208 | 4.0 | 8.0 | 0.00 | 0.00 | 0.00 | 79 | 1016.4 |
| 20260505180016 | 60 | 196 | 2.0 | 8.0 | 0.00 | 0.00 | 0.00 | 81 | 1016.4 |
| 20260505174512 | 60 | 195 | 2.0 | 6.0 | 0.00 | 0.00 | 0.00 | 81 | 1016.2 |
| 20260505173011 | 59 | 224 | 3.0 | 7.0 | 0.00 | 0.00 | 0.00 | 82 | 1016.3 |
| 20260505171515 | 59 | 247 | 1.0 | 6.0 | 0.00 | 0.00 | 0.00 | 83 | 1016.3 |
| 20260505170013 | 58 | 291 | 2.0 | 8.0 | 0.00 | 0.00 | 0.00 | 82 | 1016.2 |
| 20260505164506 | 58 | 200 | 3.0 | 8.0 | 0.00 | 0.00 | 0.00 | 84 | 1016.2 |
| 20260505163007 | 58 | 119 | 3.0 | 8.0 | 0.00 | 0.00 | 0.00 | 84 | 1016.2 |
| 20260505161504 | 57 | 165 | 2.0 | 6.0 | 0.00 | 0.00 | 0.00 | 85 | 1016.1 |
| 20260505153002 | 56 | 193 | 1.0 | 5.0 | 0.00 | 0.00 | 0.00 | 87 | 1016.1 |
| 20260505151559 | 56 | 193 | 1.0 | 5.0 | 0.00 | 0.00 | 0.00 | 87 | 1016.0 |
| 20260505130104 | 52 | 240 | 3.0 | 5.0 | 0.00 | 0.00 | 0.00 | 89 | 1014.3 |
| 20260505124544 | 53 | 164 | 1.0 | 4.0 | 0.00 | 0.00 | 0.00 | 88 | 1014.0 |
| 20260505123043 | 53 | 195 | 2.0 | 4.0 | 0.00 | 0.00 | 0.00 | 88 | 1013.9 |
| 20260505121536 | 53 | 209 | 1.0 | 4.0 | 0.00 | 0.00 | 0.00 | 87 | 1013.7 |
| 20260505120031 | 53 | 195 | 2.0 | 4.0 | 0.00 | 0.00 | 0.00 | 87 | 1013.5 |
| 20260505114531 | 54 | 200 | 1.0 | 6.0 | 0.00 | 0.00 | 0.00 | 86 | 1013.4 |
| 20260505113029 | 54 | 160 | 0.0 | 7.0 | 0.00 | 0.00 | 0.00 | 85 | 1013.2 |
| 20260505111534 | 54 | 165 | 3.0 | 7.0 | 0.00 | 0.00 | 0.00 | 85 | 1013.0 |
| 20260505101517 | 55 | 136 | 1.0 | 3.0 | 0.00 | 0.00 | 0.00 | 81 | 1012.5 |
| 20260505100023 | 56 | 148 | 1.0 | 7.0 | 0.00 | 0.00 | 0.00 | 80 | 1012.4 |
| 20260505094516 | 56 | 214 | 0.0 | 4.0 | 0.00 | 0.00 | 0.00 | 79 | 1012.3 |
| 20260505093014 | 56 | 210 | 1.0 | 5.0 | 0.00 | 0.00 | 0.00 | 79 | 1012.3 |
| 20260505091513 | 55 | 201 | 0.0 | 3.0 | 0.00 | 0.00 | 0.00 | 79 | 1012.4 |
| 20260505090011 | 55 | 82 | 1.0 | 4.0 | 0.00 | 0.00 | 0.00 | 80 | 1012.1 |
| 20260505084514 | 55 | 200 | 0.0 | 2.0 | 0.00 | 0.00 | 0.00 | 80 | 1011.9 |
| 20260505083013 | 56 | 202 | 0.0 | 8.0 | 0.00 | 0.00 | 0.00 | 79 | 1011.7 |
| 20260505081507 | 56 | 171 | 1.0 | 5.0 | 0.00 | 0.00 | 0.00 | 78 | 1011.5 |